GFSMA_2pvu_pres_000.txt.gz
Presure
191 187 185 187 191 194 198 203 204 204 212 221 228 228 239 245 235 229 229 194 193 190 206 197 183 194 178 175 181 183 175 182 191 169 166 170 174 178 158 154 175 182 173
180 195 200 202 201 194 190 193 195 198 206 205 203 211 218 221 228 236 247 232 187 195 192 209 178 191 185 199 189 186 178 186 189 186 179 181 182 193 181 167 152 164 161
191 193 188 189 184 189 194 197 193 193 199 196 198 200 205 203 216 222 222 221 245 190 191 188 200 207 173 183 183 187 181 171 186 180 187 184 171 183 183 201 157 155 171
182 179 173 181 181 183 180 183 183 184 194 194 201 198 198 203 206 201 208 215 223 229 211 190 183 191 188 188 189 210 189 188 181 197 172 183 181 203 186 176 180 189 190
165 180 182 185 176 184 183 177 175 182 182 190 195 201 203 201 201 201 213 207 208 218 218 234 192 183 190 186 193 195 156 207 208 201 183 182 177 185 178 166 186 185 182
155 170 185 191 192 189 187 178 178 193 186 181 181 186 196 193 201 203 204 205 203 206 215 221 222 238 193 183 190 186 186 154 179 194 208 164 207 168 197 185 160 171 162
172 184 192 192 190 193 187 192 195 196 191 193 196 197 181 190 203 211 199 200 206 217 204 205 215 223 227 237 187 188 182 187 196 203 193 171 197 175 188 203 179 156 188
152 185 177 186 192 188 197 190 193 194 191 195 198 198 203 207 193 194 204 203 195 207 216 218 208 208 230 225 246 240 188 193 202 192 205 184 184 201 181 198 175 172 184
183 148 188 160 163 191 193 190 202 199 212 211 210 204 206 204 208 207 201 201 203 205 204 210 218 216 212 215 233 229 252 215 194 179 181 191 182 186 173 156 174 156 178
179 186 188 185 152 185 162 217 229 233 205 240 215 230 230 233 230 223 218 212 199 203 207 210 211 218 219 223 231 225 235 255 261 214 190 183 184 185 182 171 176 183 181
190 174 198 221 232 229 224 246 243 242 240 266 259 263 274 261 250 251 250 253 256 251 250 258 241 234 229 221 248 232 246 235 270 264 223 214 204 193 187 180 183 163 183
222 224 219 224 251 245 243 235 277 287 274 283 263 294 296 294 287 286 286 275 250 283 285 274 253 248 252 245 254 253 250 252 248 275 269 224 212 183 210 203 203 189 166
211 235 219 248 254 247 277 274 287 306 324 321 317 327 345 352 355 356 348 343 313 280 256 283 286 281 266 273 284 296 278 270 269 287 262 189 221 215 227 222 203 196 202
230 224 263 256 291 289 287 286 304 311 292 289 283 295 299 298 297 305 306 327 355 369 346 320 310 295 296 324 318 328 314 274 306 249 301 254 263 221 218 217 221 194 185
245 264 250 298 289 293 294 303 305 298 269 268 277 277 282 254 261 274 296 260 305 310 325 354 337 322 324 321 330 332 306 288 318 317 311 280 258 265 230 215 207 205 206
270 276 294 298 307 304 308 304 302 286 260 256 266 269 287 295 290 297 281 291 307 307 298 292 310 308 312 321 329 336 342 349 346 346 326 304 268 262 284 229 219 214 206
288 306 302 308 305 304 283 287 267 270 255 256 262 269 310 253 256 281 307 267 267 261 261 262 279 293 291 296 304 312 317 346 391 338 328 309 287 255 267 261 235 228 221
297 312 310 311 303 278 292 314 294 385 371 360 352 345 331 281 289 331 278 269 281 389 327 291 386 377 369 358 309 365 300 296 384 395 327 301 296 272 251 275 252 241 227
320 316 299 296 316 345 405 447 439 395 425 416 408 398 393 387 385 284 304 379 379 379 376 375 372 369 364 292 290 294 279 279 316 378 393 341 294 272 261 258 254 248 233
278 307 336 388 436 441 431 420 414 407 401 393 387 381 377 371 371 371 369 363 358 359 362 368 370 367 364 352 348 344 346 349 354 359 369 377 399 275 269 255 262 246 244
345 426 435 426 429 422 417 407 395 388 381 375 367 363 360 359 359 358 358 356 360 360 351 342 340 338 342 361 368 348 344 343 348 348 353 363 369 394 332 272 256 276 239
417 414 420 407 398 399 387 386 381 372 367 360 352 348 351 348 348 352 357 343 329 341 332 328 325 325 330 342 341 375 358 350 342 341 345 351 356 372 359 325 286 257 295
413 411 404 400 391 384 378 369 363 362 356 346 347 340 337 342 354 348 341 329 310 331 385 397 401 410 422 436 361 334 360 362 350 339 344 346 354 339 373 347 297 280 280
409 398 394 388 377 365 355 356 356 350 340 345 336 336 344 348 338 329 303 362 359 351 351 352 352 356 366 376 393 426 313 338 365 353 342 341 346 351 360 366 321 305 262
380 375 368 362 359 358 357 354 348 342 345 335 336 346 352 334 308 311 355 343 338 340 349 345 340 361 345 347 357 376 392 405 324 367 359 347 345 347 349 367 343 316 313
361 355 351 350 346 345 346 342 338 335 333 336 349 350 330 296 355 331 321 328 328 323 347 325 363 338 323 369 350 352 367 382 405 437 369 361 346 346 347 351 362 333 319

GFSMA_2pvu_pres_003.txt.gz
Presure
175 182 189 186 189 187 187 189 191 187 193 194 204 210 214 220 241 248 246 239 217 190 195 191 183 193 88 203 167 188 178 179 177 172 175 185 175 176 172 162 168 170 156
175 173 180 171 176 181 179 183 181 184 184 186 166 185 193 199 204 216 223 242 258 218 209 201 192 201 183 199 195 185 191 194 188 175 178 180 168 182 164 179 178 161 160
174 180 183 182 186 172 172 182 191 184 182 180 183 182 189 163 184 201 206 209 219 242 259 223 199 191 193 195 191 195 191 189 175 190 172 186 172 183 175 181 175 173 116
185 183 189 177 178 190 162 189 190 191 173 188 187 181 182 185 182 181 187 200 202 209 214 235 256 198 193 191 196 211 188 191 178 177 171 188 187 191 180 180 180 181 176
171 188 173 172 165 194 181 182 182 181 185 177 173 172 186 187 185 182 184 182 186 197 197 203 214 236 256 191 194 197 205 188 190 190 178 179 190 189 182 191 172 180 169
184 176 181 176 183 185 175 183 177 178 182 184 190 189 180 180 194 188 189 180 184 188 194 192 201 207 221 242 194 190 190 192 202 191 185 185 186 188 196 185 192 188 182
171 143 138 172 188 138 143 171 190 196 192 193 136 209 208 209 195 193 198 193 193 174 193 195 200 195 204 218 229 218 193 191 199 185 206 190 187 191 189 186 183 180 187
149 169 130 167 186 153 162 188 185 212 222 219 182 226 212 231 228 223 228 209 215 202 193 199 196 203 198 194 206 220 237 206 191 194 193 202 198 196 199 197 189 195 185
156 135 162 182 197 204 215 217 227 200 222 216 232 221 231 206 247 213 239 237 232 229 214 207 204 204 201 204 201 206 214 224 243 194 191 170 193 184 185 224 201 175 197
168 195 203 208 217 222 118 218 215 214 228 229 253 254 246 262 256 285 242 259 240 239 239 226 214 208 210 205 205 207 206 213 217 235 253 200 191 191 194 177 180 188 225
206 214 216 224 207 231 240 251 251 230 228 261 264 254 299 300 282 274 273 281 286 291 275 250 230 226 224 216 212 207 213 208 213 220 233 253 219 189 170 196 200 182 207
215 222 227 215 187 230 185 250 244 262 264 264 294 288 291 283 288 281 267 300 300 285 295 277 306 276 252 234 231 226 213 212 212 211 216 223 237 240 186 204 206 201 204
196 223 232 202 229 237 252 268 264 279 270 278 300 294 299 299 292 294 302 308 303 308 334 351 308 298 296 279 255 249 246 240 223 221 217 218 226 233 251 218 191 218 183
236 229 220 231 238 251 289 289 276 293 302 301 309 306 304 305 307 305 312 303 273 278 275 290 319 339 357 322 312 293 282 255 256 253 240 217 218 226 233 257 219 208 224
235 254 256 260 264 278 306 316 303 314 317 322 320 315 316 311 303 310 315 309 271 274 273 275 263 280 292 307 331 343 332 316 251 258 255 260 246 231 249 236 269 221 214
261 263 272 279 313 318 318 323 336 336 327 298 292 308 313 300 299 299 290 307 279 268 259 276 250 246 260 273 288 305 321 359 372 312 299 309 269 256 245 239 235 263 226
275 277 286 321 327 325 305 288 292 317 408 415 412 431 381 367 358 350 346 288 277 273 282 281 331 322 297 280 279 273 257 304 317 380 375 322 305 270 264 253 242 240 266
277 315 329 323 285 296 362 463 461 445 440 435 435 429 426 429 428 425 427 428 377 367 363 363 331 253 289 304 307 292 293 290 294 304 334 379 376 362 291 280 271 250 250
331 319 279 325 442 434 404 407 437 427 419 410 408 408 407 406 406 407 403 396 394 396 400 402 328 289 310 268 264 267 266 262 277 293 303 318 343 358 372 357 339 312 266
280 318 443 421 396 402 416 410 405 402 404 390 391 389 385 386 386 385 385 383 383 383 384 389 392 387 309 284 339 383 385 380 378 353 386 296 313 326 350 365 356 345 306
360 429 401 417 417 410 404 399 396 394 395 386 381 377 370 366 364 362 362 363 368 370 368 370 375 376 376 380 376 371 364 364 373 367 370 379 385 343 318 335 387 334 347
415 406 418 407 396 386 381 384 385 382 379 376 369 364 362 361 362 360 357 352 345 347 349 361 373 370 358 361 362 360 366 375 372 361 363 363 375 308 381 324 319 406 389
406 409 397 386 378 372 366 361 360 359 359 354 357 357 356 357 349 348 339 342 352 357 351 348 345 339 336 334 337 338 342 350 349 366 383 367 364 365 316 301 298 393 402
399 390 379 369 361 355 354 353 351 348 348 349 349 347 346 337 347 336 338 348 338 334 328 343 346 369 368 366 371 365 356 323 328 342 344 383 372 363 364 370 275 352 379
384 369 359 352 347 343 348 349 348 341 338 344 346 344 342 341 337 346 337 322 365 361 351 344 343 347 351 359 362 368 363 368 382 350 323 345 369 367 363 362 368 368 365
366 361 351 353 362 359 354 353 355 359 354 349 346 348 345 344 346 323 302 336 324 330 328 322 338 348 343 353 357 338 337 358 361 368 382 401 335 358 370 363 362 370 355

GFSMA_2pvu_pres_009.txt.gz
Presure
185 200 174 188 194 188 159 173 181 187 185 185 184 184 176 185 195 194 182 197 193 201 239 215 203 217 199 193 193 202 194 187 179 208 188 196 197 194 192 187 185 186 207
186 142 187 181 159 183 183 172 164 180 174 181 191 189 184 185 176 178 195 196 185 199 192 201 222 205 206 195 196 196 199 196 199 195 205 195 200 184 196 192 182 185 200
192 192 165 189 184 184 178 189 161 166 170 187 186 192 190 180 186 184 173 175 193 190 195 192 200 211 193 203 212 206 194 191 190 185 183 189 191 193 188 204 182 191 181
178 151 184 184 180 175 183 186 184 161 184 188 180 190 195 203 210 209 189 213 170 180 198 197 192 191 210 212 184 193 209 194 196 194 190 182 189 184 193 185 187 192 178
181 182 178 174 178 184 187 187 187 190 156 203 142 149 148 135 156 224 222 216 210 206 184 196 182 197 189 207 224 196 179 206 198 188 188 188 178 193 184 190 179 191 181
163 183 175 179 187 190 194 166 201 207 193 136 155 185 205 206 206 204 211 199 176 214 188 228 202 194 185 193 193 206 224 188 188 206 194 187 179 176 189 178 192 184 178
185 194 197 200 203 118 145 202 153 202 123 208 211 208 206 212 136 202 205 222 222 217 215 222 236 220 203 181 206 195 209 226 182 197 190 176 184 183 184 182 186 188 187
201 206 204 204 205 206 205 206 205 204 204 203 205 206 202 197 197 217 214 214 220 164 230 217 189 195 240 206 171 192 197 200 220 188 188 196 177 188 181 183 189 182 179
204 196 194 200 194 196 194 194 205 199 201 196 204 203 194 217 206 213 210 210 212 215 227 225 238 234 198 242 223 199 186 201 203 221 196 191 190 198 190 184 183 187 186
139 199 203 203 200 205 203 219 224 229 196 223 212 236 220 211 228 213 214 244 218 234 258 236 243 232 235 235 231 212 215 207 180 201 209 215 173 199 191 195 188 179 188
201 209 209 198 151 224 192 220 225 228 225 220 224 245 168 168 257 260 143 249 266 282 282 271 230 249 240 232 235 257 197 218 218 214 202 205 214 225 198 200 181 192 184
201 211 214 213 206 228 224 214 231 237 226 227 243 245 258 255 269 274 312 303 285 211 303 284 296 286 260 261 264 267 293 238 222 221 219 209 208 213 222 203 203 200 203
212 212 217 218 219 221 224 230 239 241 250 258 258 273 281 320 337 334 329 315 313 314 312 311 309 291 286 261 278 279 295 280 243 240 234 223 212 212 211 215 223 218 201
160 225 213 221 228 238 252 256 256 265 272 281 320 376 368 362 357 349 346 337 325 325 318 311 296 299 304 283 293 314 317 310 267 261 231 241 226 216 210 210 209 223 231
223 214 230 235 250 259 261 272 296 331 333 371 352 291 298 303 330 339 341 340 336 330 329 328 326 325 333 331 296 314 312 310 302 310 300 254 243 234 215 215 213 214 221
216 238 251 260 285 310 307 340 365 329 284 285 296 377 423 420 415 411 416 424 434 449 452 406 323 294 284 300 334 322 315 314 314 315 317 298 270 253 241 229 214 217 217
248 253 265 305 281 345 274 272 289 300 391 439 427 420 426 427 426 422 401 386 399 404 419 427 427 380 331 304 300 304 326 319 316 318 321 316 264 272 256 242 238 222 215
271 334 339 350 268 279 289 437 428 423 411 401 403 400 404 405 409 407 405 395 395 393 392 420 437 413 414 348 329 310 284 324 324 319 327 322 314 311 274 263 249 244 230
292 354 340 296 290 448 433 427 414 406 406 397 391 388 383 379 381 392 391 388 389 390 398 405 414 417 427 408 353 342 328 289 320 320 327 322 318 319 309 265 267 259 248
311 279 295 451 439 425 415 408 398 397 395 391 387 378 371 368 366 369 384 385 378 381 383 383 393 400 407 418 431 406 342 338 304 285 318 329 325 323 322 324 293 276 264
315 420 437 429 419 409 408 390 380 370 368 369 370 375 364 360 359 359 366 379 379 372 377 373 369 370 375 381 392 405 416 410 350 340 310 306 330 330 326 327 341 333 319
437 420 416 414 402 390 381 366 363 361 358 359 358 356 357 357 349 350 353 358 375 372 368 361 352 349 353 359 368 371 378 390 401 403 412 347 315 321 322 318 332 318 325
409 400 406 393 382 366 365 355 352 350 348 346 351 362 365 358 349 343 345 351 356 365 366 365 358 355 366 367 365 362 363 370 378 386 393 399 404 418 349 319 282 302 302
390 404 385 375 361 355 353 341 371 469 461 457 464 474 343 357 369 360 339 344 352 355 358 355 349 348 351 350 351 351 357 358 360 364 370 376 382 393 406 349 270 270 275
396 380 364 356 349 345 363 406 433 425 426 431 435 447 462 367 346 357 356 340 350 350 348 347 341 338 338 346 354 361 375 404 370 371 373 384 377 386 392 396 402 412 323
382 358 348 342 345 362 384 414 402 403 413 427 446 452 449 457 333 352 363 341 347 345 336 337 342 339 349 363 373 366 351 349 358 369 370 383 384 387 402 387 396 401 410

GFSMA_2pvu_pres_012.txt.gz
Presure
169 151 175 202 200 197 197 197 181 196 187 184 184 183 189 183 189 194 188 196 200 194 190 202 222 214 199 211 195 206 200 225 200 204 194 209 198 201 184 192 186 183 200
211 131 207 192 190 194 185 192 193 186 183 189 193 189 187 183 187 185 194 165 195 197 193 194 192 213 214 193 210 185 205 199 189 197 191 183 196 212 189 188 181 195 191
186 187 177 190 187 184 184 175 190 182 190 194 195 196 193 178 188 182 191 220 182 196 199 200 190 188 216 207 199 207 190 195 198 193 196 200 192 129 221 194 190 183 182
193 182 182 145 177 190 191 186 191 194 193 197 196 199 204 167 160 214 220 222 224 211 192 212 198 196 183 212 206 210 184 190 195 185 188 197 181 190 210 199 194 195 200
183 178 186 187 196 180 203 202 201 203 189 206 208 209 212 211 209 201 213 163 189 208 197 219 203 190 197 179 205 207 187 194 183 184 194 188 196 183 191 193 188 183 198
179 179 141 140 209 207 208 206 206 206 202 204 204 202 205 204 162 206 206 157 156 145 151 220 219 197 173 214 188 197 212 186 199 195 184 187 195 182 184 197 207 198 180
184 182 127 202 136 210 204 198 203 199 201 202 199 201 194 198 202 230 215 210 210 206 210 148 215 194 224 173 192 194 194 210 188 186 202 189 181 192 188 192 185 205 201
159 148 118 199 198 196 204 207 202 202 199 200 221 202 204 222 205 196 224 213 126 150 211 161 204 206 213 231 209 182 205 200 209 203 186 195 199 187 189 185 188 182 192
199 151 203 204 152 203 161 213 222 214 218 224 221 223 179 226 206 212 213 221 228 227 216 187 172 186 208 219 224 227 188 205 200 209 211 182 189 199 194 179 187 185 197
194 195 122 197 206 215 218 217 215 225 225 209 207 211 225 233 231 223 218 227 241 233 231 225 206 240 220 227 225 223 223 194 187 200 212 214 188 183 206 195 190 182 190
202 202 204 211 214 213 225 219 226 221 231 232 235 229 247 242 250 156 278 272 262 260 256 228 224 241 251 222 225 224 217 229 235 216 182 205 217 207 190 194 202 190 180
196 199 166 126 125 128 171 172 223 230 229 243 243 258 256 271 268 287 340 205 359 317 240 330 333 331 339 310 337 280 239 241 216 244 198 195 199 213 218 192 197 201 185
204 212 217 213 223 237 222 232 240 243 246 251 260 267 318 350 349 309 291 370 375 314 365 354 344 246 334 339 340 342 329 275 261 259 241 247 197 198 210 219 204 197 206
212 219 226 230 231 242 248 243 257 266 274 282 366 291 288 285 357 327 270 287 297 296 284 275 278 279 277 279 327 334 331 311 288 285 288 257 223 220 196 210 225 201 205
224 229 238 240 242 263 257 259 277 298 353 272 330 318 310 298 298 324 454 445 441 445 474 468 448 298 291 287 261 322 329 327 311 300 296 288 264 253 203 226 208 230 204
240 243 249 258 267 272 277 284 342 287 329 302 286 350 444 438 431 424 418 424 425 428 431 416 437 451 469 332 307 291 327 341 338 314 301 297 290 261 253 254 230 212 228
247 270 339 341 361 354 343 290 311 303 447 442 438 422 418 415 411 408 404 403 404 414 432 429 398 408 431 428 395 319 312 344 346 330 315 309 302 291 268 249 257 235 189
275 267 277 288 285 305 310 434 438 425 420 415 411 409 405 401 399 392 392 391 388 392 407 415 406 395 392 422 380 374 374 320 334 346 336 293 298 307 303 251 228 278 241
296 275 318 332 371 440 427 417 408 408 404 398 395 388 381 378 381 386 388 380 378 379 382 401 394 400 396 379 390 423 426 394 375 324 322 333 343 326 324 301 288 290 317
312 326 396 437 422 415 402 404 398 387 381 370 363 363 364 363 362 365 375 377 372 367 369 383 393 387 390 393 401 396 422 431 414 391 378 321 288 328 326 323 316 309 304
407 440 421 407 398 395 402 394 379 369 364 359 356 354 354 354 354 360 362 373 366 364 360 366 383 381 382 385 389 392 399 411 426 429 431 431 344 290 322 324 323 318 315
422 413 406 420 397 397 391 369 358 354 353 353 374 377 465 480 476 343 356 364 364 355 353 354 366 378 376 374 375 375 378 383 395 409 427 448 447 348 290 295 326 329 326
494 465 428 404 393 378 364 354 349 349 359 366 422 417 422 435 450 467 358 357 361 352 347 349 358 377 365 362 363 362 359 365 372 380 395 412 418 430 376 298 287 318 339
447 421 399 388 367 354 352 352 344 364 383 403 397 401 415 422 433 441 466 341 363 349 342 344 353 365 373 366 367 365 367 370 371 367 371 379 385 397 409 391 316 292 324
417 393 377 360 349 347 343 342 358 410 402 394 399 425 430 445 450 455 451 344 372 356 337 341 357 353 352 350 350 355 355 358 354 356 360 371 371 378 383 390 401 410 352
378 364 351 342 344 341 343 354 375 401 402 439 439 436 444 462 466 453 458 332 349 360 339 352 348 342 340 341 345 347 348 352 358 363 358 370 362 367 372 375 379 385 393